Year,Month,Day,Hour,Minute,Value (Times are PST for windgust in km/hr)
2012,01,05,00,00,11.30
2012,01,05,00,01,17.70
2012,01,05,00,02,17.70
2012,01,05,00,03,14.50
2012,01,05,00,04,16.10
2012,01,05,00,05,6.40
2012,01,05,00,06,11.30
2012,01,05,00,07,9.60
2012,01,05,00,08,8.10
2012,01,05,00,09,9.60
2012,01,05,00,10,11.30
2012,01,05,00,11,11.30
2012,01,05,00,12,11.30
2012,01,05,00,13,14.50
2012,01,05,00,14,6.40
2012,01,05,00,15,6.40
2012,01,05,00,16,4.80
2012,01,05,00,17,4.80
2012,01,05,00,18,3.20
2012,01,05,00,19,6.40
2012,01,05,00,20,3.20
2012,01,05,00,21,1.60
2012,01,05,00,25,3.20
2012,01,05,00,26,1.60
2012,01,05,00,27,3.20
2012,01,05,00,28,6.40
2012,01,05,00,29,3.20
2012,01,05,00,30,1.60
2012,01,05,00,33,8.10
2012,01,05,00,34,6.40
2012,01,05,00,35,8.10
2012,01,05,00,36,6.40
2012,01,05,00,37,3.20
2012,01,05,00,39,6.40
2012,01,05,00,40,3.20
2012,01,05,00,41,4.80
2012,01,05,00,42,9.60
2012,01,05,00,43,12.90
2012,01,05,00,44,6.40
2012,01,05,00,45,6.40
2012,01,05,00,46,6.40
2012,01,05,00,47,4.80
2012,01,05,00,48,4.80
2012,01,05,00,49,6.40
2012,01,05,00,50,6.40
2012,01,05,00,51,6.40
2012,01,05,00,52,4.80
2012,01,05,00,53,8.10
2012,01,05,00,54,9.60
2012,01,05,00,55,6.40
2012,01,05,00,56,8.10
2012,01,05,00,57,9.60
2012,01,05,00,58,8.10
2012,01,05,00,59,3.20
2012,01,05,01,00,6.40
2012,01,05,01,01,6.40
2012,01,05,01,02,4.80
2012,01,05,01,03,9.60
2012,01,05,01,04,8.10
2012,01,05,01,05,6.40
2012,01,05,01,06,3.20
2012,01,05,01,07,4.80
2012,01,05,01,09,4.80
2012,01,05,01,10,4.80
2012,01,05,01,11,3.20
2012,01,05,01,12,1.60
2012,01,05,01,13,8.10
2012,01,05,01,14,1.60
2012,01,05,01,15,6.40
2012,01,05,01,16,8.10
2012,01,05,01,17,6.40
2012,01,05,01,18,4.80
2012,01,05,01,19,4.80
2012,01,05,01,20,4.80
2012,01,05,01,21,9.60
2012,01,05,01,22,16.10
2012,01,05,01,23,8.10
2012,01,05,01,24,3.20
2012,01,05,01,25,3.20
2012,01,05,01,26,6.40
2012,01,05,01,27,6.40
2012,01,05,01,28,3.20
2012,01,05,01,29,3.20
2012,01,05,01,33,4.80
2012,01,05,01,34,4.80
2012,01,05,01,35,4.80
2012,01,05,01,36,6.40
2012,01,05,01,37,6.40
2012,01,05,01,38,4.80
2012,01,05,01,40,3.20
2012,01,05,01,41,4.80
2012,01,05,01,42,1.60
2012,01,05,01,43,6.40
2012,01,05,01,44,8.10
2012,01,05,01,45,11.30
2012,01,05,01,46,4.80
2012,01,05,01,47,4.80
2012,01,05,01,48,3.20
2012,01,05,01,49,8.10
2012,01,05,01,50,4.80
2012,01,05,01,52,4.80
2012,01,05,01,53,6.40
2012,01,05,01,54,3.20
2012,01,05,01,55,3.20
2012,01,05,01,56,3.20
2012,01,05,01,57,1.60
2012,01,05,02,00,4.80
2012,01,05,02,03,3.20
2012,01,05,02,04,4.80
2012,01,05,02,05,3.20
2012,01,05,02,06,4.80
2012,01,05,02,07,3.20
2012,01,05,02,08,4.80
2012,01,05,02,09,4.80
2012,01,05,02,10,4.80
2012,01,05,02,14,1.60
2012,01,05,02,15,1.60
2012,01,05,02,16,4.80
2012,01,05,02,17,3.20
2012,01,05,02,18,4.80
2012,01,05,02,19,4.80
2012,01,05,02,20,9.60
2012,01,05,02,21,3.20
2012,01,05,02,22,4.80
2012,01,05,02,23,3.20
2012,01,05,02,24,3.20
2012,01,05,02,28,3.20
2012,01,05,02,29,6.40
2012,01,05,02,30,4.80
2012,01,05,02,31,3.20
2012,01,05,02,32,4.80
2012,01,05,02,33,3.20
2012,01,05,02,34,3.20
2012,01,05,02,35,1.60
2012,01,05,02,36,3.20
2012,01,05,02,37,1.60
2012,01,05,02,38,6.40
2012,01,05,02,39,6.40
2012,01,05,02,40,6.40
2012,01,05,02,41,4.80
2012,01,05,02,42,3.20
2012,01,05,02,43,4.80
2012,01,05,02,44,3.20
2012,01,05,02,45,3.20
2012,01,05,02,46,4.80
2012,01,05,02,47,6.40
2012,01,05,02,48,4.80
2012,01,05,02,49,4.80
2012,01,05,02,50,3.20
2012,01,05,02,51,4.80
2012,01,05,02,52,11.30
2012,01,05,02,53,4.80
2012,01,05,02,54,3.20
2012,01,05,02,55,6.40
2012,01,05,02,56,6.40
2012,01,05,02,57,1.60
2012,01,05,03,00,1.60
2012,01,05,03,01,4.80
2012,01,05,03,02,1.60
2012,01,05,03,03,1.60
2012,01,05,03,04,4.80
2012,01,05,03,05,6.40
2012,01,05,03,06,1.60
2012,01,05,03,07,4.80
2012,01,05,03,08,3.20
2012,01,05,03,09,4.80
2012,01,05,03,10,1.60
2012,01,05,03,11,1.60
2012,01,05,03,12,4.80
2012,01,05,03,13,11.30
2012,01,05,03,14,8.10
2012,01,05,03,15,17.70
2012,01,05,03,16,8.10
2012,01,05,03,17,8.10
2012,01,05,03,18,9.60
2012,01,05,03,19,27.40
2012,01,05,03,20,8.10
2012,01,05,03,21,8.10
2012,01,05,03,22,9.60
2012,01,05,03,23,14.50
2012,01,05,03,24,11.30
2012,01,05,03,25,14.50
2012,01,05,03,26,6.40
2012,01,05,03,27,8.10
2012,01,05,03,28,6.40
2012,01,05,03,29,4.80
2012,01,05,03,30,6.40
2012,01,05,03,31,8.10
2012,01,05,03,32,9.60
2012,01,05,03,33,9.60
2012,01,05,03,34,12.90
2012,01,05,03,35,8.10
2012,01,05,03,36,8.10
2012,01,05,03,37,9.60
2012,01,05,03,38,6.40
2012,01,05,03,39,6.40
2012,01,05,03,40,6.40
2012,01,05,03,41,6.40
2012,01,05,03,42,8.10
2012,01,05,03,43,8.10
2012,01,05,03,44,8.10
2012,01,05,03,45,9.60
2012,01,05,03,46,4.80
2012,01,05,03,49,4.80
2012,01,05,03,50,9.60
2012,01,05,03,51,6.40
2012,01,05,03,52,4.80
2012,01,05,04,00,1.60
2012,01,05,04,01,3.20
2012,01,05,04,02,4.80
2012,01,05,04,03,4.80
2012,01,05,04,04,4.80
2012,01,05,04,05,1.60
2012,01,05,04,07,4.80
2012,01,05,04,08,4.80
2012,01,05,04,10,3.20
2012,01,05,04,11,3.20
2012,01,05,04,12,6.40
2012,01,05,04,13,8.10
2012,01,05,04,14,6.40
2012,01,05,04,15,8.10
2012,01,05,04,16,6.40
2012,01,05,04,17,8.10
2012,01,05,04,18,8.10
2012,01,05,04,19,11.30
2012,01,05,04,20,8.10
2012,01,05,04,21,8.10
2012,01,05,04,22,6.40
2012,01,05,04,23,6.40
2012,01,05,04,24,9.60
2012,01,05,04,25,9.60
2012,01,05,04,26,9.60
2012,01,05,04,27,4.80
2012,01,05,04,28,3.20
2012,01,05,04,30,4.80
2012,01,05,04,31,8.10
2012,01,05,04,32,6.40
2012,01,05,04,33,3.20
2012,01,05,04,34,8.10
2012,01,05,04,35,6.40
2012,01,05,04,36,8.10
2012,01,05,04,37,6.40
2012,01,05,04,38,6.40
2012,01,05,04,39,3.20
2012,01,05,04,40,4.80
2012,01,05,04,41,8.10
2012,01,05,04,42,9.60
2012,01,05,04,43,9.60
2012,01,05,04,44,8.10
2012,01,05,04,45,8.10
2012,01,05,04,46,9.60
2012,01,05,04,47,6.40
2012,01,05,04,48,6.40
2012,01,05,04,49,8.10
2012,01,05,04,50,6.40
2012,01,05,04,51,9.60
2012,01,05,04,52,8.10
2012,01,05,04,53,6.40
2012,01,05,04,54,11.30
2012,01,05,04,55,6.40
2012,01,05,04,56,9.60
2012,01,05,04,57,11.30
2012,01,05,04,58,11.30
2012,01,05,04,59,11.30
2012,01,05,05,00,9.60
2012,01,05,05,01,16.10
2012,01,05,05,02,12.90
2012,01,05,05,03,16.10
2012,01,05,05,04,19.30
2012,01,05,05,05,12.90
2012,01,05,05,06,11.30
2012,01,05,05,07,8.10
2012,01,05,05,08,9.60
2012,01,05,05,09,9.60
2012,01,05,05,10,8.10
2012,01,05,05,11,11.30
2012,01,05,05,12,11.30
2012,01,05,05,13,14.50
2012,01,05,05,14,19.30
2012,01,05,05,15,12.90
2012,01,05,05,16,11.30
2012,01,05,05,17,9.60
2012,01,05,05,18,6.40
2012,01,05,05,19,8.10
2012,01,05,05,20,8.10
2012,01,05,05,21,8.10
2012,01,05,05,22,9.60
2012,01,05,05,23,6.40
2012,01,05,05,24,4.80
2012,01,05,05,25,8.10
2012,01,05,05,26,12.90
2012,01,05,05,27,9.60
2012,01,05,05,28,8.10
2012,01,05,05,29,8.10
2012,01,05,05,30,11.30
2012,01,05,05,31,11.30
2012,01,05,05,32,11.30
2012,01,05,05,33,14.50
2012,01,05,05,34,11.30
2012,01,05,05,35,11.30
2012,01,05,05,36,9.60
2012,01,05,05,37,12.90
2012,01,05,05,38,14.50
2012,01,05,05,39,16.10
2012,01,05,05,40,14.50
2012,01,05,05,41,9.60
2012,01,05,05,42,11.30
2012,01,05,05,43,11.30
2012,01,05,05,44,8.10
2012,01,05,05,45,11.30
2012,01,05,05,46,9.60
2012,01,05,05,47,12.90
2012,01,05,05,48,12.90
2012,01,05,05,49,11.30
2012,01,05,05,50,19.30
2012,01,05,05,51,16.10
2012,01,05,05,52,12.90
2012,01,05,05,53,11.30
2012,01,05,05,54,6.40
2012,01,05,05,55,6.40
2012,01,05,05,56,20.90
2012,01,05,05,57,27.40
2012,01,05,05,58,11.30
2012,01,05,05,59,8.10
2012,01,05,06,00,16.10
2012,01,05,06,01,8.10
2012,01,05,06,02,11.30
2012,01,05,06,03,11.30
2012,01,05,06,04,20.90
2012,01,05,06,05,17.70
2012,01,05,06,06,8.10
2012,01,05,06,07,3.20
2012,01,05,06,08,8.10
2012,01,05,06,09,8.10
2012,01,05,06,10,12.90
2012,01,05,06,11,8.10
2012,01,05,06,12,6.40
2012,01,05,06,13,6.40
2012,01,05,06,14,4.80
2012,01,05,06,15,6.40
2012,01,05,06,16,8.10
2012,01,05,06,17,6.40
2012,01,05,06,18,9.60
2012,01,05,06,19,8.10
2012,01,05,06,20,11.30
2012,01,05,06,21,8.10
2012,01,05,06,22,11.30
2012,01,05,06,23,11.30
2012,01,05,06,24,11.30
2012,01,05,06,25,9.60
2012,01,05,06,26,11.30
2012,01,05,06,27,9.60
2012,01,05,06,28,14.50
2012,01,05,06,29,8.10
2012,01,05,06,30,9.60
2012,01,05,06,31,9.60
2012,01,05,06,32,9.60
2012,01,05,06,33,8.10
2012,01,05,06,34,4.80
2012,01,05,06,35,4.80
2012,01,05,06,36,4.80
2012,01,05,06,37,3.20
2012,01,05,06,38,11.30
2012,01,05,06,39,11.30
2012,01,05,06,40,11.30
2012,01,05,06,41,6.40
2012,01,05,06,42,9.60
2012,01,05,06,43,4.80
2012,01,05,06,44,3.20
2012,01,05,06,46,6.40
2012,01,05,06,47,4.80
2012,01,05,06,49,16.10
2012,01,05,06,50,9.60
2012,01,05,06,51,16.10
2012,01,05,06,52,8.10
2012,01,05,06,53,8.10
2012,01,05,06,54,8.10
2012,01,05,06,55,3.20
2012,01,05,06,56,6.40
2012,01,05,06,57,8.10
2012,01,05,06,58,8.10
2012,01,05,06,59,3.20
2012,01,05,07,00,3.20
2012,01,05,07,01,3.20
2012,01,05,07,02,6.40
2012,01,05,07,03,6.40
2012,01,05,07,04,8.10
2012,01,05,07,05,1.60
2012,01,05,07,06,6.40
2012,01,05,07,07,4.80
2012,01,05,07,08,9.60
2012,01,05,07,09,6.40
2012,01,05,07,10,8.10
2012,01,05,07,11,11.30
2012,01,05,07,12,8.10
2012,01,05,07,13,3.20
2012,01,05,07,14,3.20
2012,01,05,07,15,4.80
2012,01,05,07,16,20.90
2012,01,05,07,17,9.60
2012,01,05,07,18,8.10
2012,01,05,07,19,8.10
2012,01,05,07,20,8.10
2012,01,05,07,21,8.10
2012,01,05,07,22,9.60
2012,01,05,07,23,3.20
2012,01,05,07,25,8.10
2012,01,05,07,26,4.80
2012,01,05,07,28,4.80
2012,01,05,07,29,4.80
2012,01,05,07,30,3.20
2012,01,05,07,31,3.20
2012,01,05,07,32,6.40
2012,01,05,07,33,4.80
2012,01,05,07,34,4.80
2012,01,05,07,35,4.80
2012,01,05,07,37,4.80
2012,01,05,07,38,6.40
2012,01,05,07,39,8.10
2012,01,05,07,40,6.40
2012,01,05,07,41,6.40
2012,01,05,07,42,3.20
2012,01,05,07,43,4.80
2012,01,05,07,44,4.80
2012,01,05,07,45,4.80
2012,01,05,07,46,4.80
2012,01,05,07,47,6.40
2012,01,05,07,48,4.80
2012,01,05,07,49,8.10
2012,01,05,07,50,8.10
2012,01,05,07,51,8.10
2012,01,05,07,52,8.10
2012,01,05,07,53,4.80
2012,01,05,07,54,4.80
2012,01,05,07,55,3.20
2012,01,05,07,59,6.40
2012,01,05,08,00,6.40
2012,01,05,08,01,6.40
2012,01,05,08,02,6.40
2012,01,05,08,03,6.40
2012,01,05,08,04,8.10
2012,01,05,08,05,8.10
2012,01,05,08,06,9.60
2012,01,05,08,07,8.10
2012,01,05,08,08,11.30
2012,01,05,08,09,19.30
2012,01,05,08,10,11.30
2012,01,05,08,11,11.30
2012,01,05,08,12,14.50
2012,01,05,08,13,19.30
2012,01,05,08,14,20.90
2012,01,05,08,15,17.70
2012,01,05,08,16,16.10
2012,01,05,08,17,11.30
2012,01,05,08,18,14.50
2012,01,05,08,19,19.30
2012,01,05,08,20,22.50
2012,01,05,08,21,20.90
2012,01,05,08,22,20.90
2012,01,05,08,23,19.30
2012,01,05,08,24,19.30
2012,01,05,08,25,16.10
2012,01,05,08,26,8.10
2012,01,05,08,27,8.10
2012,01,05,08,28,6.40
2012,01,05,08,29,8.10
2012,01,05,08,30,6.40
2012,01,05,08,31,11.30
2012,01,05,08,32,16.10
2012,01,05,08,33,11.30
2012,01,05,08,34,8.10
2012,01,05,08,35,6.40
2012,01,05,08,36,6.40
2012,01,05,08,37,6.40
2012,01,05,08,38,8.10
2012,01,05,08,39,9.60
2012,01,05,08,40,8.10
2012,01,05,08,41,8.10
2012,01,05,08,42,9.60
2012,01,05,08,43,6.40
2012,01,05,08,44,11.30
2012,01,05,08,45,11.30
2012,01,05,08,46,11.30
2012,01,05,08,47,8.10
2012,01,05,08,48,6.40
2012,01,05,08,49,11.30
2012,01,05,08,50,4.80
2012,01,05,08,51,4.80
2012,01,05,08,52,3.20
2012,01,05,08,53,8.10
2012,01,05,08,54,4.80
2012,01,05,08,55,3.20
2012,01,05,08,56,6.40
2012,01,05,08,57,8.10
2012,01,05,08,58,8.10
2012,01,05,08,59,9.60
2012,01,05,09,00,6.40
2012,01,05,09,01,4.80
2012,01,05,09,02,3.20
2012,01,05,09,03,4.80
2012,01,05,09,04,8.10
2012,01,05,09,05,6.40
2012,01,05,09,06,4.80
2012,01,05,09,07,4.80
2012,01,05,09,08,3.20
2012,01,05,09,09,4.80
2012,01,05,09,10,3.20
2012,01,05,09,11,1.60
2012,01,05,09,12,3.20
2012,01,05,09,13,1.60
2012,01,05,09,14,3.20
2012,01,05,09,15,3.20
2012,01,05,09,16,1.60
2012,01,05,09,17,1.60
2012,01,05,09,18,1.60
2012,01,05,09,20,4.80
2012,01,05,09,21,4.80
2012,01,05,09,22,6.40
2012,01,05,09,23,3.20
2012,01,05,09,24,9.60
2012,01,05,09,25,3.20
2012,01,05,09,26,3.20
2012,01,05,09,29,4.80
2012,01,05,09,30,4.80
2012,01,05,09,34,3.20
2012,01,05,09,35,3.20
2012,01,05,09,37,1.60
2012,01,05,09,39,1.60
2012,01,05,09,40,4.80
2012,01,05,09,41,4.80
2012,01,05,09,42,4.80
2012,01,05,09,43,3.20
2012,01,05,09,44,3.20
2012,01,05,09,45,1.60
2012,01,05,09,47,1.60
2012,01,05,09,48,3.20
2012,01,05,09,49,3.20
2012,01,05,09,50,3.20
2012,01,05,09,55,1.60
2012,01,05,09,56,1.60
2012,01,05,09,58,3.20
2012,01,05,09,59,3.20
2012,01,05,10,00,3.20
2012,01,05,10,01,3.20
2012,01,05,10,02,3.20
2012,01,05,10,04,1.60
2012,01,05,10,10,3.20
2012,01,05,10,11,3.20
2012,01,05,10,12,3.20
2012,01,05,10,13,1.60
2012,01,05,10,14,3.20
2012,01,05,10,15,3.20
2012,01,05,10,16,3.20
2012,01,05,10,17,4.80
2012,01,05,10,18,4.80
2012,01,05,10,19,4.80
2012,01,05,10,20,4.80
2012,01,05,10,21,8.10
2012,01,05,10,22,4.80
2012,01,05,10,23,4.80
2012,01,05,10,24,3.20
2012,01,05,10,25,8.10
2012,01,05,10,26,1.60
2012,01,05,10,27,3.20
2012,01,05,10,28,6.40
2012,01,05,10,29,4.80
2012,01,05,10,30,6.40
2012,01,05,10,31,9.60
2012,01,05,10,32,16.10
2012,01,05,10,33,16.10
2012,01,05,10,34,12.90
2012,01,05,10,35,9.60
2012,01,05,10,36,11.30
2012,01,05,10,37,12.90
2012,01,05,10,38,9.60
2012,01,05,10,39,8.10
2012,01,05,10,40,6.40
2012,01,05,10,41,8.10
2012,01,05,10,42,9.60
2012,01,05,10,43,9.60
2012,01,05,10,44,9.60
2012,01,05,10,45,14.50
2012,01,05,10,46,9.60
2012,01,05,10,47,9.60
2012,01,05,10,48,9.60
2012,01,05,10,49,9.60
2012,01,05,10,50,8.10
2012,01,05,10,51,11.30
2012,01,05,10,52,8.10
2012,01,05,10,53,11.30
2012,01,05,10,54,11.30
2012,01,05,10,55,11.30
2012,01,05,10,56,14.50
2012,01,05,10,57,11.30
2012,01,05,10,58,11.30
2012,01,05,10,59,11.30
2012,01,05,11,00,8.10
2012,01,05,11,01,8.10
2012,01,05,11,02,9.60
2012,01,05,11,03,11.30
2012,01,05,11,04,9.60
2012,01,05,11,05,16.10
2012,01,05,11,06,14.50
2012,01,05,11,07,11.30
2012,01,05,11,08,8.10
2012,01,05,11,09,14.50
2012,01,05,11,10,11.30
2012,01,05,11,11,17.70
2012,01,05,11,12,11.30
2012,01,05,11,13,11.30
2012,01,05,11,14,16.10
2012,01,05,11,15,12.90
2012,01,05,11,16,9.60
2012,01,05,11,17,11.30
2012,01,05,11,18,9.60
2012,01,05,11,19,9.60
2012,01,05,11,20,14.50
2012,01,05,11,21,12.90
2012,01,05,11,22,9.60
2012,01,05,11,23,9.60
2012,01,05,11,24,9.60
2012,01,05,11,25,11.30
2012,01,05,11,26,12.90
2012,01,05,11,27,16.10
2012,01,05,11,28,9.60
2012,01,05,11,29,14.50
2012,01,05,11,30,9.60
2012,01,05,11,31,11.30
2012,01,05,11,32,9.60
2012,01,05,11,33,16.10
2012,01,05,11,34,9.60
2012,01,05,11,35,9.60
2012,01,05,11,36,6.40
2012,01,05,11,37,8.10
2012,01,05,11,38,8.10
2012,01,05,11,39,8.10
2012,01,05,11,40,3.20
2012,01,05,11,41,6.40
2012,01,05,11,42,3.20
2012,01,05,11,43,4.80
2012,01,05,11,44,6.40
2012,01,05,11,45,8.10
2012,01,05,11,46,6.40
2012,01,05,11,47,9.60
2012,01,05,11,48,8.10
2012,01,05,11,49,9.60
2012,01,05,11,50,9.60
2012,01,05,11,51,9.60
2012,01,05,11,52,8.10
2012,01,05,11,53,9.60
2012,01,05,11,54,8.10
2012,01,05,11,55,9.60
2012,01,05,11,56,8.10
2012,01,05,11,57,6.40
2012,01,05,11,58,9.60
2012,01,05,11,59,11.30
2012,01,05,12,00,11.30
2012,01,05,12,01,6.40
2012,01,05,12,02,8.10
2012,01,05,12,03,16.10
2012,01,05,12,04,12.90
2012,01,05,12,05,11.30
2012,01,05,12,06,11.30
2012,01,05,12,07,14.50
2012,01,05,12,08,9.60
2012,01,05,12,09,9.60
2012,01,05,12,10,8.10
2012,01,05,12,11,6.40
2012,01,05,12,12,17.70
2012,01,05,12,13,14.50
2012,01,05,12,14,6.40
2012,01,05,12,15,8.10
2012,01,05,12,16,11.30
2012,01,05,12,17,8.10
2012,01,05,12,18,6.40
2012,01,05,12,19,9.60
2012,01,05,12,20,12.90
2012,01,05,12,21,12.90
2012,01,05,12,22,14.50
2012,01,05,12,23,9.60
2012,01,05,12,24,12.90
2012,01,05,12,25,9.60
2012,01,05,12,26,17.70
2012,01,05,12,27,17.70
2012,01,05,12,28,14.50
2012,01,05,12,29,14.50
2012,01,05,12,30,9.60
2012,01,05,12,31,6.40
2012,01,05,12,32,8.10
2012,01,05,12,33,8.10
2012,01,05,12,34,8.10
2012,01,05,12,35,9.60
2012,01,05,12,36,9.60
2012,01,05,12,37,9.60
2012,01,05,12,38,14.50
2012,01,05,12,39,16.10
2012,01,05,12,40,16.10
2012,01,05,12,41,19.30
2012,01,05,12,42,9.60
2012,01,05,12,43,11.30
2012,01,05,12,44,9.60
2012,01,05,12,45,6.40
2012,01,05,12,46,9.60
2012,01,05,12,47,14.50
2012,01,05,12,48,14.50
2012,01,05,12,49,12.90
2012,01,05,12,50,11.30
2012,01,05,12,51,9.60
2012,01,05,12,52,12.90
2012,01,05,12,53,6.40
2012,01,05,12,54,4.80
2012,01,05,12,55,4.80
2012,01,05,12,56,6.40
2012,01,05,12,57,4.80
2012,01,05,12,58,16.10
2012,01,05,12,59,6.40
2012,01,05,13,00,4.80
2012,01,05,13,01,8.10
2012,01,05,13,02,8.10
2012,01,05,13,03,9.60
2012,01,05,13,04,8.10
2012,01,05,13,05,8.10
2012,01,05,13,06,8.10
2012,01,05,13,07,8.10
2012,01,05,13,08,9.60
2012,01,05,13,09,12.90
2012,01,05,13,10,11.30
2012,01,05,13,11,16.10
2012,01,05,13,12,8.10
2012,01,05,13,13,11.30
2012,01,05,13,14,9.60
2012,01,05,13,15,11.30
2012,01,05,13,16,9.60
2012,01,05,13,17,8.10
2012,01,05,13,18,16.10
2012,01,05,13,19,11.30
2012,01,05,13,20,9.60
2012,01,05,13,21,14.50
2012,01,05,13,22,11.30
2012,01,05,13,23,9.60
2012,01,05,13,24,11.30
2012,01,05,13,25,9.60
2012,01,05,13,26,8.10
2012,01,05,13,27,11.30
2012,01,05,13,28,9.60
2012,01,05,13,29,17.70
2012,01,05,13,30,6.40
2012,01,05,13,31,8.10
2012,01,05,13,32,6.40
2012,01,05,13,33,4.80
2012,01,05,13,34,1.60
2012,01,05,13,35,3.20
2012,01,05,13,36,4.80
2012,01,05,13,37,6.40
2012,01,05,13,38,8.10
2012,01,05,13,39,4.80
2012,01,05,13,40,3.20
2012,01,05,13,41,4.80
2012,01,05,13,42,4.80
2012,01,05,13,43,4.80
2012,01,05,13,44,6.40
2012,01,05,13,45,4.80
2012,01,05,13,46,9.60
2012,01,05,13,47,6.40
2012,01,05,13,48,6.40
2012,01,05,13,49,3.20
2012,01,05,13,50,3.20
2012,01,05,13,51,4.80
2012,01,05,13,52,4.80
2012,01,05,13,53,6.40
2012,01,05,13,54,3.20
2012,01,05,13,55,1.60
2012,01,05,13,56,4.80
2012,01,05,13,57,3.20
2012,01,05,14,00,8.10
2012,01,05,14,01,4.80
2012,01,05,14,02,4.80
2012,01,05,14,03,9.60
2012,01,05,14,04,6.40
2012,01,05,14,05,3.20
2012,01,05,14,06,4.80
2012,01,05,14,07,3.20
2012,01,05,14,08,6.40
2012,01,05,14,09,6.40
2012,01,05,14,10,8.10
2012,01,05,14,11,6.40
2012,01,05,14,12,6.40
2012,01,05,14,13,3.20
2012,01,05,14,14,8.10
2012,01,05,14,15,9.60
2012,01,05,14,16,9.60
2012,01,05,14,17,9.60
2012,01,05,14,18,9.60
2012,01,05,14,19,8.10
2012,01,05,14,20,8.10
2012,01,05,14,21,11.30
2012,01,05,14,22,9.60
2012,01,05,14,23,8.10
2012,01,05,14,24,12.90
2012,01,05,14,25,12.90
2012,01,05,14,26,3.20
2012,01,05,14,27,1.60
2012,01,05,14,28,11.30
2012,01,05,14,29,9.60
2012,01,05,14,30,6.40
2012,01,05,14,31,8.10
2012,01,05,14,32,9.60
2012,01,05,14,33,3.20
2012,01,05,14,34,1.60
2012,01,05,14,35,4.80
2012,01,05,14,36,4.80
2012,01,05,14,37,6.40
2012,01,05,14,38,8.10
2012,01,05,14,39,14.50
2012,01,05,14,40,11.30
2012,01,05,14,41,8.10
2012,01,05,14,42,6.40
2012,01,05,14,43,4.80
2012,01,05,14,44,8.10
2012,01,05,14,45,3.20
2012,01,05,14,46,6.40
2012,01,05,14,47,9.60
2012,01,05,14,48,8.10
2012,01,05,14,49,8.10
2012,01,05,14,50,6.40
2012,01,05,14,51,11.30
2012,01,05,14,52,9.60
2012,01,05,14,53,9.60
2012,01,05,14,54,6.40
2012,01,05,14,55,8.10
2012,01,05,14,56,6.40
2012,01,05,14,57,4.80
2012,01,05,14,58,6.40
2012,01,05,14,59,6.40
2012,01,05,15,00,9.60
2012,01,05,15,01,11.30
2012,01,05,15,02,14.50
2012,01,05,15,03,11.30
2012,01,05,15,04,11.30
2012,01,05,15,05,16.10
2012,01,05,15,06,11.30
2012,01,05,15,07,9.60
2012,01,05,15,08,8.10
2012,01,05,15,09,6.40
2012,01,05,15,10,6.40
2012,01,05,15,11,8.10
2012,01,05,15,12,8.10
2012,01,05,15,13,9.60
2012,01,05,15,14,9.60
2012,01,05,15,15,8.10
2012,01,05,15,16,9.60
2012,01,05,15,17,9.60
2012,01,05,15,18,11.30
2012,01,05,15,19,8.10
2012,01,05,15,20,6.40
2012,01,05,15,21,4.80
2012,01,05,15,22,3.20
2012,01,05,15,23,4.80
2012,01,05,15,24,6.40
2012,01,05,15,25,6.40
2012,01,05,15,26,4.80
2012,01,05,15,27,6.40
2012,01,05,15,28,8.10
2012,01,05,15,29,6.40
2012,01,05,15,30,6.40
2012,01,05,15,31,4.80
2012,01,05,15,32,3.20
2012,01,05,15,33,6.40
2012,01,05,15,34,6.40
2012,01,05,15,35,9.60
2012,01,05,15,36,8.10
2012,01,05,15,37,9.60
2012,01,05,15,38,9.60
2012,01,05,15,39,11.30
2012,01,05,15,40,11.30
2012,01,05,15,41,11.30
2012,01,05,15,42,11.30
2012,01,05,15,43,9.60
2012,01,05,15,44,9.60
2012,01,05,15,45,8.10
2012,01,05,15,46,11.30
2012,01,05,15,47,8.10
2012,01,05,15,48,6.40
2012,01,05,15,49,8.10
2012,01,05,15,50,8.10
2012,01,05,15,51,6.40
2012,01,05,15,52,8.10
2012,01,05,15,53,8.10
2012,01,05,15,54,6.40
2012,01,05,15,55,6.40
2012,01,05,15,56,8.10
2012,01,05,15,57,8.10
2012,01,05,15,58,8.10
2012,01,05,15,59,8.10
2012,01,05,16,00,8.10
2012,01,05,16,01,6.40
2012,01,05,16,02,6.40
2012,01,05,16,03,6.40
2012,01,05,16,04,6.40
2012,01,05,16,05,4.80
2012,01,05,16,06,6.40
2012,01,05,16,07,6.40
2012,01,05,16,08,4.80
2012,01,05,16,09,4.80
2012,01,05,16,10,6.40
2012,01,05,16,11,3.20
2012,01,05,16,12,6.40
2012,01,05,16,13,3.20
2012,01,05,16,14,4.80
2012,01,05,16,15,6.40
2012,01,05,16,16,4.80
2012,01,05,16,17,4.80
2012,01,05,16,18,3.20
2012,01,05,16,19,3.20
2012,01,05,16,20,3.20
2012,01,05,16,21,4.80
2012,01,05,16,22,3.20
2012,01,05,16,23,4.80
2012,01,05,16,24,3.20
2012,01,05,16,25,3.20
2012,01,05,16,26,3.20
2012,01,05,16,27,4.80
2012,01,05,16,28,3.20
2012,01,05,16,29,6.40
2012,01,05,16,30,4.80
2012,01,05,16,31,3.20
2012,01,05,16,32,3.20
2012,01,05,16,33,4.80
2012,01,05,16,34,3.20
2012,01,05,16,35,3.20
2012,01,05,16,36,4.80
2012,01,05,16,37,4.80
2012,01,05,16,38,6.40
2012,01,05,16,39,4.80
2012,01,05,16,40,3.20
2012,01,05,16,41,1.60
2012,01,05,16,42,4.80
2012,01,05,16,43,4.80
2012,01,05,16,44,4.80
2012,01,05,16,45,4.80
2012,01,05,16,46,3.20
2012,01,05,16,47,4.80
2012,01,05,16,48,3.20
2012,01,05,16,49,3.20
2012,01,05,16,50,3.20
2012,01,05,16,51,3.20
2012,01,05,16,52,1.60
2012,01,05,16,53,1.60
2012,01,05,16,54,3.20
2012,01,05,16,55,4.80
2012,01,05,16,56,3.20
2012,01,05,16,57,1.60
2012,01,05,16,59,1.60
2012,01,05,17,00,3.20
2012,01,05,17,02,3.20
2012,01,05,17,03,3.20
2012,01,05,17,06,3.20
2012,01,05,17,07,3.20
2012,01,05,17,08,3.20
2012,01,05,17,09,8.10
2012,01,05,17,10,4.80
2012,01,05,17,11,4.80
2012,01,05,17,13,3.20
2012,01,05,17,14,1.60
2012,01,05,17,15,4.80
2012,01,05,17,16,8.10
2012,01,05,17,17,6.40
2012,01,05,17,18,4.80
2012,01,05,17,19,4.80
2012,01,05,17,20,4.80
2012,01,05,17,21,4.80
2012,01,05,17,22,8.10
2012,01,05,17,23,6.40
2012,01,05,17,24,3.20
2012,01,05,17,25,4.80
2012,01,05,17,26,6.40
2012,01,05,17,27,6.40
2012,01,05,17,28,8.10
2012,01,05,17,29,6.40
2012,01,05,17,30,9.60
2012,01,05,17,31,8.10
2012,01,05,17,32,11.30
2012,01,05,17,33,6.40
2012,01,05,17,34,4.80
2012,01,05,17,35,6.40
2012,01,05,17,36,3.20
2012,01,05,17,37,6.40
2012,01,05,17,38,6.40
2012,01,05,17,39,6.40
2012,01,05,17,40,4.80
2012,01,05,17,41,3.20
2012,01,05,17,42,6.40
2012,01,05,17,43,4.80
2012,01,05,17,44,3.20
2012,01,05,17,45,4.80
2012,01,05,17,46,4.80
2012,01,05,17,47,4.80
2012,01,05,17,48,8.10
2012,01,05,17,49,6.40
2012,01,05,17,50,8.10
2012,01,05,17,51,8.10
2012,01,05,17,52,11.30
2012,01,05,17,53,8.10
2012,01,05,17,54,11.30
2012,01,05,17,55,11.30
2012,01,05,17,56,9.60
2012,01,05,17,57,12.90
2012,01,05,17,58,11.30
2012,01,05,17,59,16.10
2012,01,05,18,00,6.40
2012,01,05,18,01,11.30
2012,01,05,18,02,16.10
2012,01,05,18,03,16.10
2012,01,05,18,04,12.90
2012,01,05,18,05,6.40
2012,01,05,18,06,8.10
2012,01,05,18,07,6.40
2012,01,05,18,08,9.60
2012,01,05,18,09,8.10
2012,01,05,18,10,11.30
2012,01,05,18,11,8.10
2012,01,05,18,12,8.10
2012,01,05,18,13,11.30
2012,01,05,18,14,11.30
2012,01,05,18,15,8.10
2012,01,05,18,16,11.30
2012,01,05,18,17,8.10
2012,01,05,18,18,8.10
2012,01,05,18,19,9.60
2012,01,05,18,20,9.60
2012,01,05,18,21,12.90
2012,01,05,18,22,8.10
2012,01,05,18,23,8.10
2012,01,05,18,24,12.90
2012,01,05,18,25,8.10
2012,01,05,18,26,14.50
2012,01,05,18,27,14.50
2012,01,05,18,28,16.10
2012,01,05,18,29,12.90
2012,01,05,18,30,16.10
2012,01,05,18,31,17.70
2012,01,05,18,32,9.60
2012,01,05,18,33,9.60
2012,01,05,18,34,11.30
2012,01,05,18,35,14.50
2012,01,05,18,36,8.10
2012,01,05,18,37,8.10
2012,01,05,18,38,11.30
2012,01,05,18,39,11.30
2012,01,05,18,40,8.10
2012,01,05,18,41,8.10
2012,01,05,18,42,9.60
2012,01,05,18,43,16.10
2012,01,05,18,44,12.90
2012,01,05,18,45,12.90
2012,01,05,18,46,9.60
2012,01,05,18,47,16.10
2012,01,05,18,48,16.10
2012,01,05,18,49,14.50
2012,01,05,18,50,4.80
2012,01,05,18,51,8.10
2012,01,05,18,52,8.10
2012,01,05,18,53,9.60
2012,01,05,18,54,14.50
2012,01,05,18,55,8.10
2012,01,05,18,56,6.40
2012,01,05,18,57,3.20
2012,01,05,18,58,6.40
2012,01,05,18,59,9.60
2012,01,05,19,00,9.60
2012,01,05,19,01,4.80
2012,01,05,19,02,4.80
2012,01,05,19,03,8.10
2012,01,05,19,04,6.40
2012,01,05,19,05,8.10
2012,01,05,19,06,8.10
2012,01,05,19,07,6.40